Find Starlink 30208

NORAD ID: 57415 Int'l Des: 2023-102 Owner: SPXS Country: US Constellation: starlink operational
LEOCIRCULAR

当前视图

正在加载3D地球...

About Starlink 30208

Starlink 30208 (NORAD 57415) is a starlink constellation satellite (v2 mini) launched Jul 19, 2023 by SPXS of US. It operates in LEO, CIRCULAR orbit with a mass of 730.00 kg.

即将过境

Passes for default location (London). Set your location on the main map for personalized predictions.

高度历史

Loading altitude history...

两行轨道根数

1 57415U 23102M 26234.92160822 .00003776 00000-0 14661-3 0 9991
2 57415 43.0018 29.7343 0001340 279.2458 80.8242 15.27591276171618
Epoch: Aug 22, 2026 • Age: 29 hours

当前状态

高度 486.6 km
远地点 / 近地点 N/A
速度 7.62 km/s
星下点 -17.80°S, 158.5°W
发射日期 Jul 19, 2023
运行时间 3 years
类型 internet

技术详情

分类 Payload
质量 730.00 kg
干质量 700.00 kg
总质量 730.00 kg
长度 0.30 m
直径 4.10 m
跨度 29.00 m
形状 Box + pan
制造商 SPXS
平台类型 Starlink V2M
阶段状态 In Orbit
所有者/国家 SPXS/US

Most Searched